Location: ????????
(55.4717°N, 39.1821°E)
Time: 19:40:25
(UTC+00:00)

USA 215 - Pass Details

Date: 14 April 2024
Orbit: 1100 x 1107 km, 123.0° (Epoch: 22 April)

Event Time Altitude Azimuth Distance (km) Brightness Sun altitude
Rises 01:35:00 0° 91° (E) 3,925 7.4 -6.8°
Reaches altitude 10° 01:37:29 10° 90° (E) 2,966 6.7 -6.5°
Maximum altitude 01:44:02 80° 5° (N) 1,125 3.5 -5.7°
Drops below altitude 10° 01:50:35 10° 280° (W) 2,963 5.0 -4.8°
Sets 01:53:04 0° 279° (W) 3,921 5.6 -4.5°
